This demonstration page uses our WeatherBlox Daily Observations layout. Learn more.

38.89511, -77.03637

Hourly Observations for February 2, 2020

Temp ( °F °C ) Dew Point ( °F °C ) Humidity (%) Winds ( mph kmh ) Pressure ( in mb ) Visibility ( mi km ) Precip ( " mm )
12:52 am 00:52 Mostly Cloudy 41 5 38 3.3 89 89 W 3 6 29.75 1007 9 14.48406 0 0
1:52 am 01:52 Partly Cloudy with Mist and Fog 40 4.4 38 3.3 93 93 SSW 3 6 29.72 1007 6 9.65604 0 0
2:52 am 02:52 Mostly Clear with Mist and Fog 37 2.8 36 2.2 96 96 SW 6 9 29.72 1007 6 9.65604 0 0
3:52 am 03:52 Mostly Cloudy with Patchy Fog 36 2.2 36 2.2 100 100 S 7 11 29.71 1006 6 9.65604 0 0
4:09 am 04:09 Mostly Cloudy with Patchy Fog 36 2.2 35 1.7 97 97 SSW 8 13 29.71 1006 1 1.60934 0 0
4:16 am 04:16 Mostly Cloudy with Patchy Fog 35 1.7 35 1.7 100 100 S 7 11 29.71 1006 3 4.82802 0 0
4:24 am 04:24 Mostly Cloudy with Patchy Fog 35 1.7 34 1.1 96 96 S 7 11 29.71 1006 3 4.82802 0 0
4:52 am 04:52 Mostly Cloudy with Mist and Fog 35 1.7 34 1.1 96 96 S 7 11 29.71 1006 4 6.43736 0 0
5:52 am 05:52 Mostly Cloudy with Mist and Fog 35 1.7 35 1.7 100 100 SSW 5 7 29.72 1007 4 6.43736 0 0
6:52 am 06:52 Mostly Cloudy 37 2.8 35 1.7 93 93 SW 5 7 29.75 1007 10 16.0934 0 0
7:52 am 07:52 Mostly Cloudy 41 5 30 -1.1 65 65 WNW 9 15 29.75 1007 10 16.0934 0 0
8:52 am 08:52 Mostly Cloudy 43 6.1 30 -1.1 60 60 WNW 12 19 29.75 1007 10 16.0934 0 0
9:52 am 09:52 Mostly Cloudy 45 7.2 30 -1.1 56 56 W 6 9 29.75 1008 10 16.0934 0 0
10:52 am 10:52 Cloudy with Light Rain 42 5.6 32 0 68 68 VRB 5 7 29.72 1007 9 14.48406 0.001 0.001
11:52 am 11:52 Mostly Cloudy 42 5.6 36 2.2 79 79 S 10 17 29.68 1005 10 16.0934 0.01 0.254
12:52 pm 12:52 Mostly Cloudy 45 7.2 37 2.8 74 74 S 9 15 29.63 1003 10 16.0934 0 0
1:52 pm 13:52 Partly Cloudy 48 8.9 36 2.2 63 63 S 12 19 29.56 1001 10 16.0934 0 0
2:52 pm 14:52 Partly Cloudy 50 10 35 1.7 57 57 S 16 26 29.52 1000 10 16.0934 0 0
3:52 pm 15:52 Mostly Sunny 51 10.6 34 1.1 52 52 S 14 22 29.47 998 10 16.0934 0 0
4:52 pm 16:52 Mostly Sunny 54 12.2 31 -0.6 42 42 SSW 14 22 29.47 998 10 16.0934 0 0
5:52 pm 17:52 Mostly Clear 54 12.2 31 -0.6 42 42 SW 7 11 29.49 999 10 16.0934 0 0
6:52 pm 18:52 Mostly Clear 52 11.1 31 -0.6 45 45 SW 5 7 29.51 999 10 16.0934 0 0
7:52 pm 19:52 Mostly Clear 52 11.1 31 -0.6 45 45 SW 5 7 29.53 1000 10 16.0934 0 0
8:52 pm 20:52 Mostly Clear 51 10.6 31 -0.6 46 46 SW 6 9 29.54 1000 10 16.0934 0 0
9:52 pm 21:52 Mostly Clear 50 10 31 -0.6 48 48 SSW 7 11 29.55 1001 10 16.0934 0 0
10:52 pm 22:52 Mostly Clear 48 8.9 33 0.6 56 56 SW 7 11 29.57 1002 10 16.0934 0 0
11:52 pm 23:52 Mostly Clear 48 8.9 33 0.6 56 56 SW 8 13 29.6 1002 10 16.0934 0 0

Powered by AerisWeather